[ hide orbit diagram ]
For accurate long-term ephemerides, please instead use our Horizons system.This orbit viewer was implemented using two-body methods, and hence should not be used for determining accurate long-term trajectories (over several years or decades) or planetary encounter circumstances.
Orbital Elements at Epoch 2459000.5 (2020-May-31.0) TDB
Reference: JPL 38 (heliocentric ecliptic J2000)
Element | Value | Uncertainty (1-sigma) | Units |
e | .09689787021283119 | 3.1832e-08 | |
a | 3.217907216709687 | 1.819e-08 | au |
q | 2.90609886086802 | 1.0671e-07 | au |
i | 1.570916841215467 | 4.0882e-06 | deg |
node | 28.1407369794559 | 0.0001265 | deg |
peri | 228.8252667963202 | 0.00012817 | deg |
M | 281.9261441135723 | 2.1203e-05 | deg |
tp | 2459457.758546397154 (2021-Aug-31.25854640) | 0.00012418 | TDB |
period | 2108.427652688687 5.77 | 1.7877e-05 4.894e-08 | d yr |
n | .1707433496904314 | 1.4477e-09 | deg/d |
Q | 3.529715572551355 | 1.9952e-08 | au |
|
| | Orbit Determination Parameters
Additional Information
|
[ show covariance matrix ]
Physical Parameter Table
Parameter |
Symbol |
Value |
Units |
Sigma |
Reference |
Notes |
absolute magnitude |
H |
12.5 |
|
n/a |
MPO435748 |
|
diameter |
diameter |
13.616 |
km |
0.291 |
urn:nasa:pds:neowise_diameters_albedos::2.0[mainbelt] (http://adsabs.harvard.edu/abs/2011ApJ...741...68M) |
|
geometric albedo |
albedo |
0.104 |
|
0.017 |
urn:nasa:pds:neowise_diameters_albedos::2.0[mainbelt] (http://adsabs.harvard.edu/abs/2011ApJ...741...68M) |
|
|
5221 Fabribudweis | Discovered 1980 Mar. 16 by L. Brozek at Klet. |
Named for the medieval Czech astronomer, physician and theologian Wenceslaus (Václav) Fabri de Budweis (c.1460-1518), mainly known as the author of almanacs. After a university career in Leipzig he returned to his native town, now České Budějovice, where he is considered one of the most distinguished medieval intellectual personages. |
NOTE: some special characters may not display properly (any characters within {} are an attempt to place the proper accent above a character) |
Reference: 19960828/MPCPages.arc | Last Updated: 2003-09-26 |
|
[ hide close-approach data ]
Close-Approach Data ...sorted by Date/Time (TDB)
|
Date/Time (TDB) |
Time Uncertainty (days_HH:MM) |
Body |
Nominal Distance (au) |
Minimum Distance (au) |
Maximum Distance (au) |
V-relative (km/s) |
V-infinity (km/s) |
JD (TDB) |
Time Uncertainty (minutes) |
Semi-major axis (km) |
Semi-minor axis (km) |
range-LOV angle (deg) |
N-sigma |
BP |
Orbit Ref. |
Reference |
Modified |
1990-Jul-25 21:26 |
< 00:01 |
Jupiter |
1.84950351924058 |
1.84950299585938 |
1.84950404262168 |
2.64444190617087 |
2.46518298864241 |
2448098.393352768 |
0.720618174366934 |
42.4519620492056 |
14.6488858778261 |
-83.0830473886802 |
2926195.45439346 |
T |
38 |
CATAB v2.0f-lin.ifort 2020-Jun-23 16:17:47 |
2020-Jun-23 16:17 |
2001-Aug-26 11:18 |
< 00:01 |
Jupiter |
1.63837753045293 |
1.63837717105093 |
1.63837788985474 |
1.94172712339912 |
1.65418469629381 |
2452147.970745154 |
0.423014119686055 |
46.9770676955534 |
13.2124766022177 |
-85.0086648835768 |
3057274.9490326 |
T |
38 |
CATAB v2.0f-lin.ifort 2020-Jun-23 16:17:47 |
2020-Jun-23 16:17 |
2012-Oct-15 23:51 |
< 00:01 |
Jupiter |
1.51494886507896 |
1.51494853411173 |
1.51494919604584 |
1.61916402957395 |
1.22616184618258 |
2456216.493824508 |
0.210969452450692 |
62.8460006026139 |
56.0222609880548 |
81.7659790490449 |
2600937.39080862 |
T |
38 |
CATAB v2.0f-lin.ifort 2020-Jun-23 16:17:47 |
2020-Jun-23 16:17 |
2023-Dec-12 02:07 |
< 00:01 |
Jupiter |
1.50887891621842 |
1.5088785466214 |
1.50887928581527 |
1.71002061153559 |
1.34218210944894 |
2460290.588177363 |
0.405290947350845 |
69.3690191886381 |
43.727326583857 |
79.3206852479742 |
2494507.73714664 |
T |
38 |
CATAB v2.0f-lin.ifort 2020-Jun-23 16:17:47 |
2020-Jun-23 16:17 |
2035-Jan-19 20:56 |
< 00:01 |
Jupiter |
1.62542744859139 |
1.62542693708503 |
1.62542796009794 |
2.24777720982422 |
2.00257016969414 |
2464347.372568055 |
0.760635489972744 |
61.4981563468905 |
5.63627775153066 |
-86.6750184275746 |
2779888.06765547 |
T |
38 |
CATAB v2.0f-lin.ifort 2020-Jun-23 16:17:47 |
2020-Jun-23 16:17 |
2046-Feb-02 01:42 |
00:01 |
Jupiter |
1.84506581886695 |
1.84506508485898 |
1.84506655287513 |
3.23907180992696 |
3.09409717932707 |
2468378.570850006 |
1.08178974834 |
60.635546466401 |
16.3265680479231 |
-68.5197501608592 |
3031003.60543708 |
T |
38 |
CATAB v2.0f-lin.ifort 2020-Jun-23 16:17:47 |
2020-Jun-23 16:17 |
2156-Sep-26 21:30 |
00:03 |
Jupiter |
1.80526439544695 |
1.80526281957026 |
1.80526597132261 |
2.432081831914 |
2.23083625325789 |
2508792.395744882 |
2.88426956661392 |
60.363191919261 |
23.7652275851776 |
-62.2698838248649 |
1171107.8514588 |
T |
38 |
CATAB v2.0f-lin.ifort 2020-Jun-23 16:17:47 |
2020-Jun-23 16:17 |
2167-Nov-05 13:39 |
00:03 |
Jupiter |
1.61493100286698 |
1.61492977463732 |
1.61493223109471 |
1.84068641058121 |
1.52942386356614 |
2512849.069078759 |
3.02239121598087 |
51.545002626823 |
35.3851967174717 |
84.4321292003356 |
1057458.23623984 |
T |
38 |
CATAB v2.0f-lin.ifort 2020-Jun-23 16:17:47 |
2020-Jun-23 16:17 |
2178-Dec-29 23:03 |
00:03 |
Jupiter |
1.52093160928011 |
1.52093106789673 |
1.52093215066296 |
1.62376075085393 |
1.23400904670597 |
2516921.460148014 |
3.23750315433447 |
62.2464275769074 |
54.4022050920106 |
82.4280742429472 |
2240959.47041922 |
T |
38 |
CATAB v2.0f-lin.ifort 2020-Jun-23 16:17:47 |
2020-Jun-23 16:17 |
2190-Feb-21 19:36 |
00:04 |
Jupiter |
1.53974951454608 |
1.53974878510635 |
1.53975024398713 |
1.81261637960262 |
1.47829968079837 |
2520993.316397355 |
3.7347789083383 |
136.442944543064 |
32.8070101922604 |
66.424965728171 |
2227240.50742907 |
T |
38 |
CATAB v2.0f-lin.ifort 2020-Jun-23 16:17:47 |
2020-Jun-23 16:17 |
|
|